Total_Precipitation_Accumulation
1.96 2.30 2.67 2.98 3.45 3.46 3.34 3.43 3.59 3.79 3.90 4.17 4.27 4.50 4.85 5.11 5.23 5.23 5.12 5.11 4.99 5.09 5.16 4.96 4.76 4.63 4.61 4.51 4.46 4.28 4.07 3.81 3.70 3.60 3.19 2.64 2.33 2.31 2.27 2.26 2.27 2.24 2.27
2.30 2.47 2.68 3.11 3.55 3.69 3.68 3.71 3.91 4.23 4.44 4.69 5.15 5.43 5.70 5.97 6.15 6.14 5.69 5.48 5.35 5.25 5.19 5.24 5.15 4.98 4.81 4.63 4.44 4.34 4.15 3.81 3.73 3.72 3.57 3.05 2.60 2.18 1.90 1.91 1.93 1.96 2.14
2.52 2.58 2.66 3.04 3.36 3.54 3.64 3.77 4.04 4.48 5.02 5.43 5.90 6.28 6.42 6.45 6.32 6.04 5.90 5.74 5.55 5.39 5.24 5.13 4.93 4.81 4.69 4.53 4.33 4.15 4.03 3.82 3.68 3.64 3.74 3.41 2.92 2.39 2.00 1.76 1.70 1.71 1.85
2.47 2.56 2.70 2.96 3.27 3.49 3.63 3.99 4.53 5.17 5.71 6.16 6.73 7.22 7.28 7.07 6.76 6.32 5.89 5.62 5.36 5.03 4.80 4.68 4.60 4.44 4.12 3.90 3.74 3.67 3.53 3.41 3.25 3.29 3.26 3.10 2.91 2.85 2.58 2.23 2.03 1.94 1.93
2.13 2.37 2.53 2.72 3.14 3.35 3.58 3.95 4.57 5.29 5.96 6.74 7.42 7.86 7.73 7.37 6.93 6.26 5.67 5.20 4.81 4.44 4.17 4.04 3.89 3.68 3.33 2.98 2.85 2.94 3.02 3.03 2.94 2.94 2.99 2.98 2.82 2.74 2.69 2.53 2.33 2.20 2.06
1.86 2.00 2.15 2.41 2.73 3.04 3.35 3.79 4.46 5.19 5.82 6.41 6.91 7.13 7.01 6.78 6.25 5.56 4.93 4.52 4.19 3.84 3.49 3.18 2.93 2.71 2.55 2.37 2.33 2.38 2.46 2.66 2.77 2.89 2.91 2.91 2.80 2.70 2.69 2.59 2.50 2.42 2.24
1.75 1.76 1.86 2.09 2.44 2.63 3.02 3.47 3.92 4.57 4.99 5.30 5.67 5.83 5.87 5.64 5.31 4.82 4.35 3.89 3.40 3.05 2.77 2.49 2.40 2.27 2.16 2.09 2.09 2.10 2.07 2.18 2.38 2.51 2.60 2.67 2.66 2.64 2.68 2.77 2.73 2.54 2.34
1.66 1.68 1.81 2.00 2.29 2.43 2.62 2.82 3.11 3.49 3.65 3.69 3.94 4.19 4.21 4.15 4.00 3.71 3.37 3.07 2.71 2.35 2.11 1.90 1.78 1.76 1.82 1.76 1.82 1.84 1.86 1.87 1.95 2.05 2.27 2.39 2.39 2.39 2.39 2.44 2.55 2.60 2.44
1.48 1.63 1.73 1.75 1.82 1.90 2.00 2.09 2.28 2.44 2.51 2.60 2.68 2.83 2.85 2.84 2.75 2.57 2.31 2.11 1.96 1.73 1.60 1.51 1.48 1.46 1.50 1.57 1.58 1.55 1.58 1.67 1.70 1.73 1.86 1.95 1.97 2.01 2.07 2.16 2.25 2.44 2.47
1.38 1.52 1.62 1.60 1.61 1.60 1.69 1.76 1.83 1.89 1.92 1.99 1.97 1.94 1.97 1.98 1.96 1.81 1.72 1.63 1.50 1.41 1.41 1.33 1.27 1.21 1.21 1.24 1.30 1.32 1.36 1.41 1.49 1.52 1.54 1.59 1.59 1.67 1.78 1.92 2.04 2.12 2.21
1.31 1.41 1.39 1.39 1.38 1.39 1.45 1.52 1.52 1.50 1.52 1.51 1.51 1.48 1.44 1.45 1.51 1.51 1.42 1.36 1.29 1.18 1.14 1.04 0.98 0.95 0.99 1.06 1.14 1.18 1.24 1.29 1.33 1.38 1.39 1.41 1.40 1.47 1.53 1.56 1.64 1.81 1.92
1.36 1.36 1.29 1.25 1.20 1.21 1.24 1.31 1.30 1.29 1.34 1.27 1.20 1.21 1.20 1.20 1.24 1.25 1.15 1.10 1.11 1.03 0.97 0.85 0.81 0.80 0.84 0.90 0.96 0.99 1.03 1.14 1.16 1.15 1.17 1.17 1.20 1.26 1.29 1.34 1.39 1.49 1.63
1.71 1.58 1.39 1.30 1.25 1.21 1.16 1.10 1.11 1.11 1.13 1.11 1.08 1.07 1.08 1.10 1.09 1.09 1.07 1.02 1.01 0.98 0.91 0.80 0.77 0.76 0.75 0.76 0.81 0.85 0.83 0.87 0.94 0.98 1.04 1.06 1.10 1.11 1.05 1.10 1.20 1.27 1.35
1.94 1.74 1.50 1.40 1.36 1.26 1.18 1.12 1.13 1.07 1.00 0.99 0.98 1.00 1.01 1.03 1.01 1.04 1.10 1.08 0.99 0.91 0.84 0.79 0.73 0.71 0.69 0.71 0.72 0.70 0.74 0.78 0.84 0.85 0.89 0.92 0.96 1.00 1.02 1.04 1.18 1.24 1.36
1.87 1.78 1.64 1.54 1.48 1.37 1.31 1.19 1.12 1.03 0.98 0.93 0.92 0.91 0.89 0.89 0.88 0.94 0.98 1.01 0.98 0.91 0.85 0.76 0.69 0.62 0.57 0.54 0.57 0.58 0.62 0.70 0.71 0.75 0.75 0.75 0.80 0.89 0.89 0.89 1.01 1.15 1.32
1.94 1.84 1.74 1.64 1.60 1.49 1.43 1.34 1.24 1.17 1.07 0.99 1.00 0.94 0.91 0.87 0.86 0.85 0.87 0.86 0.80 0.78 0.75 0.70 0.64 0.58 0.47 0.48 0.49 0.48 0.56 0.66 0.70 0.69 0.66 0.62 0.62 0.68 0.75 0.78 0.85 0.99 1.11
2.01 1.89 1.88 1.86 1.79 1.73 1.63 1.49 1.33 1.25 1.05 0.94 0.92 0.91 0.89 0.84 0.80 0.75 0.74 0.75 0.79 0.76 0.69 0.64 0.62 0.64 0.57 0.42 0.37 0.40 0.50 0.65 0.66 0.65 0.69 0.62 0.57 0.64 0.68 0.71 0.72 0.77 0.81
2.17 2.05 1.95 1.90 1.83 1.74 1.62 1.44 1.24 1.09 0.93 0.85 0.84 0.80 0.77 0.76 0.78 0.72 0.70 0.73 0.77 0.74 0.71 0.66 0.69 0.72 0.58 0.41 0.31 0.35 0.49 0.60 0.55 0.56 0.65 0.72 0.75 0.68 0.66 0.68 0.73 0.78 0.79
2.15 2.05 1.92 1.85 1.75 1.55 1.38 1.27 1.08 0.96 0.89 0.82 0.80 0.72 0.65 0.71 0.73 0.70 0.70 0.74 0.71 0.70 0.68 0.68 0.74 0.76 0.61 0.44 0.35 0.38 0.50 0.57 0.55 0.56 0.55 0.57 0.64 0.63 0.66 0.73 0.88 0.93 0.94
1.89 1.85 1.69 1.57 1.52 1.34 1.17 1.11 1.00 0.89 0.86 0.79 0.76 0.69 0.68 0.71 0.75 0.76 0.74 0.67 0.68 0.65 0.58 0.63 0.72 0.70 0.62 0.45 0.35 0.35 0.40 0.50 0.61 0.67 0.66 0.61 0.58 0.56 0.61 0.75 0.90 0.98 1.00
1.58 1.57 1.49 1.42 1.29 1.12 1.08 1.13 1.09 0.95 0.79 0.68 0.67 0.70 0.72 0.68 0.65 0.66 0.68 0.66 0.59 0.61 0.60 0.62 0.66 0.69 0.54 0.40 0.34 0.38 0.44 0.51 0.59 0.67 0.73 0.67 0.60 0.56 0.57 0.63 0.77 0.88 0.90
1.26 1.35 1.40 1.33 1.21 1.11 1.10 1.12 1.10 0.90 0.77 0.74 0.73 0.70 0.66 0.56 0.52 0.61 0.64 0.60 0.60 0.62 0.65 0.66 0.70 0.64 0.50 0.37 0.32 0.35 0.39 0.41 0.52 0.67 0.65 0.62 0.58 0.54 0.57 0.60 0.70 0.81 0.96
1.06 1.12 1.19 1.18 1.13 1.07 1.08 1.09 1.00 0.82 0.77 0.82 0.74 0.68 0.59 0.53 0.52 0.57 0.58 0.56 0.56 0.54 0.51 0.53 0.58 0.53 0.44 0.38 0.30 0.31 0.32 0.33 0.41 0.53 0.54 0.53 0.52 0.56 0.69 0.73 0.79 0.93 1.16
0.92 0.98 1.05 1.07 1.04 0.96 0.94 0.96 0.87 0.83 0.85 0.84 0.75 0.66 0.57 0.50 0.47 0.47 0.45 0.45 0.46 0.47 0.45 0.44 0.45 0.43 0.38 0.31 0.26 0.27 0.30 0.31 0.34 0.43 0.53 0.62 0.67 0.76 0.90 1.01 1.10 1.14 1.19
0.85 0.89 0.99 0.99 0.89 0.80 0.76 0.73 0.78 0.84 0.88 0.80 0.68 0.62 0.54 0.46 0.43 0.38 0.32 0.30 0.31 0.30 0.33 0.31 0.28 0.29 0.28 0.22 0.23 0.25 0.28 0.29 0.31 0.37 0.53 0.75 0.87 0.98 1.03 1.07 1.14 1.14 1.07
0.77 0.82 0.82 0.80 0.72 0.65 0.63 0.60 0.66 0.72 0.72 0.67 0.59 0.51 0.45 0.42 0.33 0.31 0.30 0.24 0.21 0.20 0.22 0.24 0.22 0.18 0.19 0.19 0.18 0.20 0.22 0.25 0.29 0.37 0.59 0.78 0.87 0.95 1.01 1.02 1.02 0.99 0.93